Погода в Надыме

Погода в Надыме : погода сейчас, прогноз погоды и архив. Всё, что Вы хотите узнать о погоде в Надыме!

Поиск расширенной информации на нашем сайте:

Другие новости

Новости СМИ2

Главная страница сайта

Новости сайта

02.10.2013

Напоминаем, что на нашем новом сайте вы можете получить высокодетализированные прогнозы погоды по пунктам России, СНГ и мира (включающие важные для авиации метеовеличины, такие как направление и скорость ветра, видимость, явления погоды, количество и форма облачности, нижняя и верхняя граница облачности), а также ознакомиться с разнообразными материалами по авиационной метеорологии и подборкой полезных ссылок на эту тему.

Сайт Метеоцентр.Азия посвящён разработке технологий оптимизации авиаметеорологического обслуживания, включая проектирование и перспективное создание нескольких автоматизированных авиаметеорологических систем:
- система выпуска высокодетальных прогностических карт явлений погоды для нижнего воздушного пространства по России и ближнему зарубежью;
- система верификации прогнозов TAF (выпускаемых синоптиками официальных АМСГ РФ и ближнего зарубежья) и AUTOTAF (выпускаемых сайтом Метеоцентр.Азия) - выявление ошибок, онлайн-сопоставление с фактической погодой METAR, автоматическое внесение коррективов в прогнозы при резком отклонении фактической погоды от прогноза, подсчёт оправдываемости прогнозов по элементам и в целом;
- система обработки, анализа и отображения авиаметеорологической информации для применения провайдерами метеорологической информации.

Рекомендуем: полезная сауна турецкая цена любовная

Погода в Надыме - сегодня

Время (UTC), дата Ветер
(°,м/с) 
Видим.   Явления Облачность Т
(°С)
Тd
(°С)
f(%) Тe
(°С)
Pmin
(гПа)
dP
(гПа)
Po
(мм)
O2
(г/м3)
Тmin Tmax R s Состояние
почвы
15 23.05.17 300 (СЗ) 4000 м  слаб. снег  10/10 300 м 
[Sc]
-3.9 -6 85 -5  1008.5  0.7  755  309    +0.7  0.0     
18 23.05.17 290 (З) 10 км  {снег}  6/6 300 м 
[Sc]
-6.6 -7.7 92 -6  1008.2  -0.3  755  312           
21 23.05.17 310 (СЗ) 4000 м  дымка  10/10 300 м 
[St]
-9.8 -10 98 -10  1007.3  -0.9  754  316           
00 24.05.17 320 (СЗ) 4000 м  слаб. снег  10/10 300 м 
[St]
-7 -7.8 94 -7  1006.6  -0.7  754  312           
03 24.05.17 030 (СВ) 10 км  {снег}  8/0 верхняя 
[Ci fib]
-2.2 -7.3 68 -2  1006.6  -0.8  753  307  -9.8    0.2  44  равномерный
сухой снег
100% 
06 24.05.17 030 (СВ) 10 км  {снег}  6/0 верхняя 
[Ci fib]
+0.2 -6.4 61 +1  1005.1  -0.7  752  304           
09 24.05.17 340 (С) 20000 м    ясно 
+2.5 -6.1 53 +3  1004.7  -0.3  752  301           
12 24.05.17 360 (С) 20000 м    3/0 верхняя 
[Ci fib]
+2.7 -6.9 49 +3  1004.1  -0.6  752  301           
15 24.05.17 240 (ЮЗ) 20000 м    ясно 
+0.6 -6.2 60 +1  1003.5  -0.7  751  303    +3.5       
18 24.05.17 тихо ()   10 км    ясно 
-3.7 -6.5 81 -4  1002.7  -0.8  751  307           
21 24.05.17 тихо ()   10 км    ясно 
-7.5 -8 96 -8  1001.9  -0.8  750  312           
00 25.05.17 120 (ЮВ) 10 км    6/0 средняя 
[Ac trans]
-4.8 -6.6 87 -4  1001.6  -0.3  750  308           
03 25.05.17 120 (ЮВ) 10 км    10/0 средняя, верхняя 
[Ac trans|Ci fib]
+0.8 -5.8 61 1001.4  -0.2  750  302  -8.1      44  равномерный
сухой снег
100% 
06 25.05.17 170 (Ю) 10 км    10/0 средняя, верхняя 
[Ac trans|Ci fib]
+5.8 -6.8 40 +6  1001.9  0.5  750  297           
09 25.05.17 210 (ЮЗ) 10 км    9/9 1000 м 
[Sc]
+6.4 -5.6 42 +6  1003.1  1.2  751  296           
12 25.05.17 270 (З) 10 км    9/9 600 м 
[Sc]
+3.6 +0.2 78 +3  1005.6  2.4  753  299           
15 25.05.17 250 (З) 10 км  {снег}  9/9 1000 м 
[Sc]
+2.7 -2 71 +3  1006.8  1.3  754  301    +6.8  0.0     
18 25.05.17 270 (З) 10 км  {снег}  6/0 средняя 
[Ac trans]
+1.3 -3.3 71 +1  1007.7  0.8  754  303           
21 25.05.17 250 (З) 10 км    3/0 средняя 
[Ac trans]
-1.3 -4.6 78 -2  1008.6  0.9  755  306           
00 26.05.17 250 (З) 10 км    ясно 
-0.5 -4.3 75 -1  1010.2  1.6  756  306           
03 26.05.17 260 (З) 10 км    6/6 600 м 
[Sc]
+2.4 -3.9 63 +1  1011.8  1.6  758  303  -1.6      41  равномерный
сухой снег
100% 
06 26.05.17 270 (З) 10 км    9/9 1000 м 
[Sc]
+3.9 -4.6 54 +3  1013.3  1.4  759  302           
09 26.05.17 240 (ЮЗ) 20000 м    6/6 1000 м 
[Cu med, cong]
+6.1 -4.3 47 +6  1013.9  0.7  759  300           
12 26.05.17 200 (Ю) 10 км    9/0 средняя 
[Ac trans]
+5.1 -4.5 50 +5  1013.6  -0.3  759  301           
18 26.05.17 140 (ЮВ) 10 км    9/0 средняя 
[Ac trans]
+4.2 -2.8 60 +2  1010  -1.9  756  300           
Время (UTC), дата Ветер
(°,м/с) 
Видим.   Явления Облачность Т
(°С)
Тd
(°С)
f(%) Тe
(°С)
Pmin
(гПа)
dP
(гПа)
Po
(мм)
O2
(г/м3)
Тmin Tmax R s Состояние
почвы

Для получения пояснительной информации подведите курсор к названию столбца.

ПОГОДА в Надыме - архив

Всё, что Вы хотите узнать о погоде в Надыме - удобно и подробно!

Выберите нужную дату (начиная с 1 января 2015* года) и нажмите кнопку "Найти".
Будут отображены архивные сводки погоды по пункту Надым, начиная с указанной даты.


Отображать данные в формате CSV (для использования в таблицах Excel)


Внимание! Наш архив погоды предназначен исключительно для личного некоммерческого использования в познавательных целях. Если Вам необходимы официальные справки о состоянии погоды (для производственных, юридических, коммерческих и т.п. целей), обращайтесь в органы Росгидромета.

*Примечание: данная дата относится к архиву по метеостанциям СССР (Россия, СНГ, Балтия).
Архив по метеостанциям Зарубежной Европы и Азии (кроме Китая) хранится 10 дней, по другим регионам земного шара (Китай, Африка, Америка, Австралия, Океания) - 1 день.

Надым - район местоположения метеостанции


Название, широта, долгота, высота метеостанции:
Надым 65.6°ш. 72.7°д. 12 м над ур. моря [Российская Федерация]

Дополнительная информация

В oтличие oт бoльшинства пoгoдных сайтoв мы публикуем пoдрoбную метеoинфoрмацию в детальнoм прoфессиoнальнoм фoрмате.

Характеристики температуры и влажнoсти вoздуха измеряются на высoте 2 м в тени вдали oт зданий и деревьев.
Скoрoсть ветра измеряется на высoте 10 м (на урoвне рoста челoвека скoрoсть ветра ниже в 1.5-2 раза). Если метеoстанция нахoдится в гoрoде или в лесу, тo скoрoсть ветра занижена на 2-4 м/с пo сравнению с oткрытым местoм. Скoрoсть ветра над акватoриями крупных рек и oзёр, а также на вершинах хoлмoв на 2-5 м/с выше, чем в oбычных услoвиях.
Атмoсфернoе давление в разных тoчках местнoсти мoжет значительнo oтличаться oт давления на метеoстанции, в зависимoсти oт услoвий рельефа (при пoдъёме на 10 м давление пoнижается примернo на 1 мм рт.ст.).